Regional Weather Roundup
Issued by NWS Burlington, VT

Current Version | Previous Version | Text Only | Print | Product List | Glossary On
Versions: 1 2 3 4 5 6 7 8 9 10 11 12 13 14 15 16 17 18 19 20 21 22 23 24 25 26 27 28 29 30 31 32 33 34 35 36 37 38 39 40 41 42 43 44 45 46 47 48 49 50
000
ASUS41 KBTV 050410
RWRBTV
VERMONT REGIONAL WEATHER ROUNDUP
NATIONAL WEATHER SERVICE BURLINGTON VT
1200 AM EDT WED AUG 05 2015

NOTE: "FAIR" INDICATES FEW OR NO CLOUDS BELOW 12,000 FEET WITH NO
SIGNIFICANT WEATHER AND/OR OBSTRUCTIONS TO VISIBILITY.

* THESE REPORTS ARE NOT UNDER NWS QUALITY CONTROL AND/OR DO NOT
  REPORT WEATHER SUCH AS PRECIPITATION AND FOG.

VTZ001>019-050500-
_____VERMONT_____


CITY           SKY/WX    TMP DP  RH WIND       PRES   REMARKS
BURLINGTON     MOCLDY    65  56  72 CALM      29.86S
MONTPELIER     PTCLDY    58  56  93 CALM      29.93S
MORRISVILLE    CLEAR     60  56  86 CALM      29.89S
ST. JOHNSBURY*   N/A     62  58  86 MISG      29.87S
LYNDONVILLE*   FAIR      59  58  98 SE3       29.91S
MIDDLEBURY*    FAIR      64  56  76 SE3       29.87F
RUTLAND*       PTCLDY    61  54  77 E8        29.91S
SPRINGFIELD    FOG       61  61 100 CALM      29.91S VSB 3/4
HIGHGATE*      LGT RAIN  65  56  72 CALM      29.86R
NEWPORT*       FAIR      58  56  94 S5        29.88S
BENNINGTON     CLEAR     58  55  90 CALM      29.92F

_____LAKE CHAMPLAIN_____


CITY           SKY/WX    TMP DP  RH WIND       PRES   REMARKS

$$

NYZ007-026>031-035-052-083-050500-
_____NORTHERN NEW YORK_____


CITY           SKY/WX    TMP DP  RH WIND       PRES   REMARKS
PLATTSBURGH    MOCLDY    63  57  81 SW5       29.85R
SARANAC LAKE   CLOUDY    56  53  90 SW5       29.90R
MASSENA        LGT RAIN  62  59  90 SW7       29.86R
OGDENSBURG*    PTCLDY    63  61  94 CALM      29.86R
POTSDAM*       MOCLDY    61  61 100 SW3       29.87R
WATERTOWN      PTCLDY    62  59  90 S3        29.88R
FT DRUM        PTCLDY    63  59  88 SW9       29.88R
ALBANY         PTCLDY    67  55  65 CALM      29.91S
GLENS FALLS    FAIR      65  57  75 S6        29.89F

$$
NHZ002-005-011-050500-
_____NEW HAMPSHIRE_____


CITY           SKY/WX    TMP DP  RH WIND       PRES   REMARKS
LEBANON        CLEAR     60  58  92 CALM      29.89S
KEENE          CLEAR     61  54  77 CALM      29.90F
MT WASHINGTON  LGT RAIN  45  45 100 NW32        N/A  VSB 0
PLYMOUTH       FAIR      58  58 100 CALM      29.89S FOG
WHITEFIELD     LGT RAIN  62  59  90 CALM      29.90R

$$

_____REGIONAL QUEBEC LOCATIONS_____


CITY           SKY/WX    TMP DP  RH WIND       PRES   REMARKS
MONTREAL       LGT RAIN  66  61  82 S12       29.83S
QUEBEC CITY    MOCLDY    59  57  94 SW7       29.78S
SHERBROOKE     CLEAR     57  55  94 W3        29.85R

_____REGIONAL ONTARIO LOCATIONS_____


CITY           SKY/WX    TMP DP  RH WIND       PRES   REMARKS
OTTAWA         MOCLDY    59  59 100 SW5       29.85R

______KEY______
VSB  - VISIBILITY IN MILES
WCI  - WIND CHILL INDEX
HX   - HEAT INDEX
$$
NNNN



USA.gov is the U.S. government's official web portal to all federal, state and local government web resources and services.